Location: Albany
(35.0170°S, 117.8920°E)
Time: 23:20:52
(UTC+08:00)

Transit 2A - Visible Passes

Search period start: 23 January 2021 00:00
Search period end: 02 February 2021 00:00
Orbit: 598 x 960 km, 66.7° (Epoch: 22 January)

Date Brightness Start Highest point End Pass type
(mag) Time Alt. Az. Time Alt. Az. Time Alt. Az.
23 Jan 7.8 00:31:52 10° S 00:37:16 30° SE 00:38:01 30° ESE visible
23 Jan 7.5 02:14:44 10° SW 02:18:26 32° WSW 02:18:26 32° WSW visible
23 Jan 8.2 23:58:09 10° S 00:02:53 22° SE 00:03:55 21° ESE visible
24 Jan 7.3 01:40:22 10° SSW 01:44:20 40° SW 01:44:20 40° SW visible
24 Jan 8.6 23:24:40 10° S 23:28:25 16° SE 23:29:56 15° ESE visible
25 Jan 7.2 01:06:08 10° SSW 01:10:22 46° SSW 01:10:22 46° SSW visible
25 Jan 8.8 22:51:49 10° SSE 22:53:51 12° SE 22:55:55 10° ESE visible
26 Jan 7.3 00:32:00 10° SSW 00:36:31 47° S 00:36:31 47° S visible
26 Jan 8.7 02:16:41 10° WSW 02:16:58 11° WSW 02:16:58 11° WSW visible
26 Jan 7.5 23:58:00 10° SSW 00:02:44 41° SSE 00:02:44 41° SSE visible
27 Jan 8.4 01:41:44 10° SW 01:43:11 16° WSW 01:43:11 16° WSW visible
27 Jan 7.7 23:24:05 10° S 23:29:02 32° SE 23:29:02 32° SE visible
28 Jan 8.2 01:07:07 10° SW 01:09:30 23° SW 01:09:30 23° SW visible
28 Jan 8.0 22:50:21 10° S 22:55:16 24° SE 22:55:24 24° SE visible
29 Jan 7.9 00:32:42 10° SW 00:35:52 31° SW 00:35:52 31° SW visible
29 Jan 8.3 22:16:47 10° S 22:20:48 17° SE 22:21:49 17° ESE visible
29 Jan 7.5 23:58:26 10° SSW 00:02:16 40° SSW 00:02:16 40° SSW visible
30 Jan 8.6 21:43:42 10° SSE 21:46:16 13° SE 21:48:17 11° ESE visible
30 Jan 7.3 23:24:17 10° SSW 23:28:44 47° S 23:28:44 47° S visible
31 Jan 7.2 22:50:15 10° SSW 22:55:15 44° SSE 22:55:15 44° SSE visible
01 Feb 8.6 00:34:10 10° SW 00:35:43 16° WSW 00:35:43 16° WSW visible
01 Feb 7.4 22:16:20 10° S 22:21:49 35° SE 22:21:49 35° SE visible
